ENST Weather Reports


time (UTC)temp
C
wind
direction
speed
KPH
gust
KPH
rain 1hr
cm
rain 24hr
cm
rain mn
cm
humidity
%
barometer
mb
20260506230307 3 180 19.3 0.0 0.00 0.00 0.00 75 1012.0
20260506223307 3 180 14.5 0.0 0.00 0.00 0.00 75 1012.0
20260506220307 2 190 14.5 0.0 0.00 0.00 0.00 86 1011.0
20260506213307 2 190 16.1 0.0 0.00 0.00 0.00 86 1011.0
20260506210307 2 190 8.0 0.0 0.00 0.00 0.00 93 1012.0
20260506203306 2 240 9.7 0.0 0.00 0.00 0.00 93 1011.0
20260506200306 3 190 14.5 0.0 0.00 0.00 0.00 80 1011.0
20260506193307 2 190 20.9 0.0 0.00 0.00 0.00 86 1011.0
20260506190306 2 180 20.9 0.0 0.00 0.00 0.00 86 1011.0
20260506183307 3 190 20.9 0.0 0.00 0.00 0.00 80 1011.0
20260506180307 3 190 12.9 0.0 0.00 0.00 0.00 80 1011.0
20260506173308 5 200 12.9 0.0 0.00 0.00 0.00 80 1011.0
20260506170307 3 190 16.1 0.0 0.00 0.00 0.00 86 1011.0
20260506163307 5 210 14.5 0.0 0.00 0.00 0.00 86 1010.0
20260506160307 5 210 14.5 0.0 0.00 0.00 0.00 86 1010.0
20260506153307 5 240 12.9 0.0 0.00 0.00 0.00 80 1010.0
20260506150307 2 110 3.2 0.0 0.00 0.00 0.00 93 1010.0
20260506143307 5 230 16.1 0.0 0.00 0.00 0.00 75 1010.0
20260506140307 5 230 16.1 0.0 0.00 0.00 0.00 75 1010.0
20260506133307 5 220 14.5 0.0 0.00 0.00 0.00 75 1010.0
20260506130308 5 210 16.1 0.0 0.00 0.00 0.00 70 1010.0
20260506123307 5 210 14.5 0.0 0.00 0.00 0.00 70 1009.0
20260506120308 5 200 16.1 0.0 0.00 0.00 0.00 75 1009.0
20260506113308 5 190 19.3 0.0 0.00 0.00 0.00 75 1009.0
20260506110307 5 200 19.3 0.0 0.00 0.00 0.00 80 1009.0
20260506103306 5 200 14.5 0.0 0.00 0.00 0.00 75 1009.0
20260506100308 3 220 12.9 0.0 0.00 0.00 0.00 86 1009.0
20260506093307 3 250 19.3 0.0 0.00 0.00 0.00 86 1008.0
20260506090307 2 0 3.2 0.0 0.00 0.00 0.00 86 1008.0
20260506083307 1 0 3.2 0.0 0.00 0.00 0.00 93 1008.0
20260506080306 3 0 3.2 0.0 0.00 0.00 0.00 80 1008.0
20260506073307 5 220 8.0 0.0 0.00 0.00 0.00 75 1007.0
20260506070306 5 230 11.3 0.0 0.00 0.00 0.00 80 1007.0
20260506060306 3 0 0.0 0.0 0.00 0.00 0.00 80 1007.0
20260506050306 2 190 12.9 0.0 0.00 0.00 0.00 93 1006.0
20260506043307 2 190 12.9 0.0 0.00 0.00 0.00 93 1006.0
20260506040307 2 190 12.9 0.0 0.00 0.00 0.00 93 1006.0
20260506033307 2 180 12.9 0.0 0.00 0.00 0.00 86 1006.0
20260506030307 1 180 12.9 0.0 0.00 0.00 0.00 93 1005.0
20260506023306 2 200 11.3 0.0 0.00 0.00 0.00 80 1005.0
20260506020306 2 250 14.5 0.0 0.00 0.00 0.00 80 1005.0
20260506013307 3 280 19.3 0.0 0.00 0.00 0.00 80 1005.0
20260506010307 5 290 11.3 0.0 0.00 0.00 0.00 75 1005.0
20260506003306 5 260 8.0 0.0 0.00 0.00 0.00 75 1004.0
20260506000307 3 280 11.3 0.0 0.00 0.00 0.00 75 1004.0
20260505233307 3 260 9.7 0.0 0.00 0.00 0.00 80 1004.0